Stations météo

Publicité
Larnaca Airport, Chypre (17609): Température de l'air & dewpoint: 06.12.2018 02:00:00 - 12.12.2018 02:00:00 (EET)Larnaca Airport, Chypre (17609): Vitesse du vent: 06.12.2018 02:00:00 - 12.12.2018 02:00:00 (EET)Larnaca Airport, Chypre (17609): Direction du vent: 06.12.2018 02:00:00 - 12.12.2018 02:00:00 (EET)Larnaca Airport, Chypre (17609): reduced air pressure: 06.12.2018 02:00:00 - 12.12.2018 02:00:00 (EET)Larnaca Airport, Chypre (17609): visibility: 06.12.2018 02:00:00 - 12.12.2018 02:00:00 (EET)
Date & Time tt [°C] td [°C] ff [km/h] ff [knt] dd ppp [hPa] vv [km]
12.12.2018 02:00:00 16,5 13,6 22 12 WSW 1012,6 10
12.12.2018 01:00:00 16,0 13,0 16 9 SW - 10
12.12.2018 00:00:00 17,0 14,0 22 12 WSW - 10
11.12.2018 23:00:00 17,5 15,0 26 14 WSW 1012,9 12
11.12.2018 22:00:00 17,0 15,0 18 10 WSW - 10
11.12.2018 21:00:00 16,0 14,0 18 10 SW - 10
11.12.2018 20:00:00 16,2 12,6 13 7 WSW 1013,4 10
11.12.2018 19:00:00 17,0 11,0 9 5 WSW - 10
11.12.2018 18:00:00 17,0 11,0 11 6 SW - 10
11.12.2018 17:00:00 17,2 10,3 13 7 SW 1014,2 25
11.12.2018 16:00:00 19,0 10,0 22 12 WSW - 10
11.12.2018 15:00:00 19,0 11,0 24 13 WSW - 10
11.12.2018 14:00:00 17,9 11,5 24 13 SW 1014,3 10
11.12.2018 13:00:00 21,0 11,0 35 19 SW - 10
11.12.2018 12:00:00 22,0 10,0 29 16 SW - 10
11.12.2018 11:00:00 20,5 10,6 28 15 WSW 1014,1 10
11.12.2018 10:00:00 20,0 11,0 29 16 SW - 10
11.12.2018 09:00:00 18,0 11,0 11 6 WSW - 10
11.12.2018 08:00:00 16,0 13,0 21 11 SW - 10
11.12.2018 07:00:00 15,0 13,0 9 5 WNW - 10
11.12.2018 06:00:00 16,0 13,0 16 9 WSW - 10
11.12.2018 05:00:00 15,8 12,5 24 13 WSW 1011,5 10
11.12.2018 04:00:00 16,0 13,0 29 16 SW - 10
11.12.2018 03:00:00 20,0 13,0 50 27 SW - 10
11.12.2018 02:00:00 19,2 14,2 46 25 SW 1009,7 10
11.12.2018 01:00:00 20,0 14,0 46 25 SW - 10
11.12.2018 00:00:00 20,0 15,0 39 21 SW - 10
10.12.2018 23:00:00 18,7 15,6 31 17 SW 1011,8 10
10.12.2018 22:00:00 - - - - - - -
10.12.2018 21:00:00 18,0 14,0 34 18 SSW - 10
10.12.2018 20:00:00 15,5 12,3 8 4 W 1013,5 10
10.12.2018 19:00:00 16,0 12,0 0 0 N - 10
10.12.2018 18:00:00 18,0 12,0 9 5 W - 10
10.12.2018 17:00:00 18,5 11,8 21 11 WSW 1014,1 10
10.12.2018 16:00:00 20,0 12,0 22 12 SW - 10
10.12.2018 15:00:00 21,0 12,0 26 14 SW - 10
10.12.2018 14:00:00 21,3 12,7 24 13 SW 1013,3 10
10.12.2018 13:00:00 22,0 14,0 29 16 WSW - 10
10.12.2018 12:00:00 21,0 15,0 26 14 SW - 10
10.12.2018 11:00:00 20,2 15,4 22 12 SW 1014,5 10
10.12.2018 10:00:00 19,0 16,0 22 12 SW - 10
10.12.2018 09:00:00 18,0 17,0 16 9 SW - 10
10.12.2018 08:00:00 14,1 13,3 4 2 SSW 1014,4 10
10.12.2018 07:00:00 14,0 13,0 8 4 NNW - 5
10.12.2018 06:00:00 14,0 13,0 5 3 SW - 5
10.12.2018 05:00:00 14,4 13,1 5 3 WSW 1014,6 15
10.12.2018 04:00:00 14,0 13,0 13 7 SSW - 5
10.12.2018 03:00:00 13,0 12,0 5 3 NNW - 10
10.12.2018 02:00:00 12,8 11,4 8 4 N 1016,0 10
10.12.2018 01:00:00 12,0 11,0 5 3 W - 10
10.12.2018 00:00:00 12,0 11,0 8 4 WNW - 10
09.12.2018 23:00:00 12,8 10,5 2 1 - 1017,5 10
09.12.2018 22:00:00 13,0 10,0 16 9 WNW - 3,0
09.12.2018 21:00:00 13,0 9,0 5 3 NW - 10
09.12.2018 20:00:00 12,9 8,8 8 4 NNW 1018,0 10
09.12.2018 19:00:00 14,0 9,0 4 2 - - 10
09.12.2018 18:00:00 16,0 10,0 15 8 W - 10
09.12.2018 17:00:00 17,3 10,4 22 12 WSW 1017,2 35
09.12.2018 16:00:00 19,0 10,0 26 14 SW - 10
09.12.2018 15:00:00 20,0 11,0 29 16 SW - 10
09.12.2018 14:00:00 20,4 9,3 24 13 WSW 1016,9 10
09.12.2018 13:00:00 21,0 10,0 28 15 SW - 10
09.12.2018 12:00:00 20,0 10,0 28 15 SW - 10
09.12.2018 11:00:00 20,0 10,0 21 11 SW - 10
09.12.2018 10:00:00 20,0 12,0 5 3 WSW - 10
09.12.2018 09:00:00 16,0 14,0 8 4 NNW - 10
09.12.2018 08:00:00 12,4 10,8 8 4 NW 1018,6 10
09.12.2018 07:00:00 10,0 9,0 8 4 NNW - 10
09.12.2018 06:00:00 10,0 9,0 5 3 NW - 10
09.12.2018 05:00:00 10,0 8,8 4 2 WNW 1017,4 10
09.12.2018 04:00:00 10,0 9,0 8 4 WNW - 10
09.12.2018 03:00:00 10,0 9,0 5 3 NW - 10
09.12.2018 02:00:00 10,7 9,1 5 3 NW 1017,3 10
09.12.2018 01:00:00 11,0 10,0 5 3 NW - 10
09.12.2018 00:00:00 12,0 10,0 9 5 NW - 10
08.12.2018 23:00:00 12,1 10,3 9 5 NW 1017,4 12
08.12.2018 22:00:00 12,0 10,0 9 5 NW - 10
08.12.2018 21:00:00 12,0 10,0 8 4 NNW - 10
08.12.2018 20:00:00 13,2 10,6 5 3 W 1016,6 10
08.12.2018 19:00:00 15,0 11,0 2 1 NW - 10
08.12.2018 18:00:00 16,0 12,0 5 3 W - 10
08.12.2018 17:00:00 17,2 12,1 8 4 WNW 1015,4 10
08.12.2018 16:00:00 19,0 13,0 13 7 WSW - 10
08.12.2018 15:00:00 20,0 12,0 24 13 SW - 10
08.12.2018 14:00:00 20,5 11,2 16 9 SSW 1014,5 30
08.12.2018 13:00:00 21,0 11,0 4 2 - - 10
08.12.2018 12:00:00 20,0 12,0 5 3 E - 10
08.12.2018 11:00:00 19,8 11,3 4 2 - 1015,1 10
08.12.2018 10:00:00 19,0 10,0 4 2 - - 10
08.12.2018 09:00:00 16,0 11,0 4 2 NNW - 10
08.12.2018 08:00:00 13,1 9,4 5 3 NW 1014,9 10
08.12.2018 07:00:00 11,0 8,0 8 4 NW - 10
08.12.2018 06:00:00 10,0 7,0 11 6 NW - 10
08.12.2018 05:00:00 10,1 7,0 9 5 NW 1013,4 10
08.12.2018 04:00:00 11,0 8,0 9 5 NW - 10
08.12.2018 03:00:00 11,0 8,0 11 6 NNW - 10
08.12.2018 02:00:00 11,0 7,5 11 6 NNW 1013,2 10
08.12.2018 01:00:00 11,0 8,0 8 4 WNW - 10
08.12.2018 00:00:00 11,0 8,0 9 5 NW - 10
07.12.2018 23:00:00 11,4 7,9 9 5 NW 1013,0 10
07.12.2018 22:00:00 12,0 9,0 8 4 NW - 10
07.12.2018 21:00:00 12,0 9,0 9 5 NNW - 10
07.12.2018 20:00:00 12,5 9,0 9 5 NNW 1012,2 20
07.12.2018 19:00:00 13,0 9,0 9 5 WNW - 10
07.12.2018 18:00:00 14,0 10,0 9 5 NW - 10
07.12.2018 17:00:00 15,7 10,2 18 10 N 1010,3 20
07.12.2018 16:00:00 16,0 10,0 16 9 N - 10
07.12.2018 15:00:00 17,0 11,0 21 11 N - 10
07.12.2018 14:00:00 18,3 11,8 28 15 N 1008,6 10
07.12.2018 13:00:00 18,0 12,0 29 16 N - 10
07.12.2018 12:00:00 18,0 12,0 31 17 N - 10
07.12.2018 11:00:00 18,3 12,1 32 17 N 1008,1 25
07.12.2018 10:00:00 18,0 12,0 22 12 N - 10
07.12.2018 09:00:00 17,0 13,0 26 14 N - 10
07.12.2018 08:00:00 14,8 12,1 15 8 NNW 1007,0 10
07.12.2018 07:00:00 13,0 11,0 24 13 NNW - 10
07.12.2018 06:00:00 12,0 11,0 18 10 NNW - 10
07.12.2018 05:00:00 11,1 9,5 9 5 WNW 1004,9 10
07.12.2018 04:00:00 12,0 10,0 9 5 NW - 10
07.12.2018 03:00:00 12,0 10,0 13 7 WNW - 10
07.12.2018 02:00:00 12,0 10,2 11 6 WNW 1004,4 10
07.12.2018 01:00:00 12,0 10,0 13 7 WNW - 10
07.12.2018 00:00:00 13,0 11,0 5 3 NNW - 10
06.12.2018 23:00:00 13,1 11,0 4 2 NNW 1004,2 10
06.12.2018 22:00:00 13,0 11,0 8 4 WNW - 10
06.12.2018 21:00:00 14,0 11,0 11 6 NW - 10
06.12.2018 20:00:00 14,0 11,7 15 8 S 1003,2 8
06.12.2018 19:00:00 15,0 13,0 9 5 SW - 10
06.12.2018 18:00:00 15,0 13,0 16 9 SW - 10
06.12.2018 17:00:00 16,1 13,6 18 10 SSW 1003,2 10
06.12.2018 16:00:00 16,0 13,0 9 5 SW - 10
06.12.2018 15:00:00 16,0 13,0 24 13 SW - 10
06.12.2018 14:00:00 17,3 13,8 21 11 SW 1003,0 10
06.12.2018 13:00:00 19,0 14,0 22 12 SW - 10
06.12.2018 12:00:00 20,0 16,0 26 14 SW - 10
06.12.2018 11:00:00 18,7 16,7 16 9 SSW 1004,2 10
06.12.2018 10:00:00 18,0 17,0 8 4 SW - 10
06.12.2018 09:00:00 16,0 15,0 9 5 W - 10
06.12.2018 08:00:00 13,8 13,0 4 2 WSW 1004,8 10
06.12.2018 07:00:00 13,0 12,0 2 1 - - 10
06.12.2018 06:00:00 14,0 13,0 8 4 WNW - 10
06.12.2018 05:00:00 13,6 12,7 9 5 WNW 1004,8 8
06.12.2018 04:00:00 14,0 13,0 2 1 - - 8
06.12.2018 03:00:00 15,0 14,0 8 4 N - 6
06.12.2018 02:00:00 15,0 13,9 4 2 WNW 1006,2 6

tt = Température de l'air
td = dewpoint
ff = Vitesse du vent
dd = Direction du vent
ppp = reduced air pressure
vv = visibility

stations d'obs. à proximité